Preview of NWS' New Version of Forecast
This preview is not operational and should not be used for support decisions.

Regional Weather Roundup (RWR)

Issued by National Weather Service (NWS)

                            
000
ASUS45 KABQ 260410
RWRNM 
NEW MEXICO REGIONAL WEATHER ROUNDUP
NATIONAL WEATHER SERVICE ALBUQUERQUE NM
1000 PM MDT SUN AUG 25 2019

NOTE: "FAIR" MEANS FEW OR NO CLOUDS BELOW 12,000 FEET AGL WITH NO
       SIGNIFICANT WEATHER OR OBSTRUCTIONS TO VISION.

      THIS PRODUCT IS RELEASED AS TWO VERSIONS.  ONE VERSION NEAR
      THE TOP OF THE HOUR CONTAINING PRELIMINARY DATA FROM ALBUQUERQUE
      AND OTHER STATIONS.  A FINAL VERSION WITH ADDITIONAL DATA IS 
      ISSUED ABOUT 10 MINUTES AFTER THE HOUR.
 
NMZ501-503-504-510>518-260500-
NORTHWEST PLATEAU/NORTHCENTRAL MOUNTAINS
  
CITY           SKY/WX    TMP DP  RH WIND       PRES   REMARKS
FARMINGTON     FAIR      83  31  15 NW8       30.04R                  
LOS ALAMOS       N/A     78  26  14 W14       30.18S                  
SANTA FE       FAIR      73  29  19 N7        30.10R                  
ANGEL FIRE     FAIR      63  31  29 W9        30.28S                  

$$
NMZ402-403-502-505>509-260500-
WESTCENTRAL MOUNTAINS/SOUTHWEST MOUNTAINS
  
CITY           SKY/WX    TMP DP  RH WIND       PRES   REMARKS
GALLUP         FAIR      72  28  19 W3        30.18R                  
GRANTS         FAIR      76  24  14 W10       30.18S                  
SILVER CITY    FAIR      80  53  38 W12       30.11R                  

$$
NMZ407-409-411-412-260500-
SOUTHERN DESERTS
  
CITY           SKY/WX    TMP DP  RH WIND       PRES   REMARKS
DEMING         FAIR      87  47  24 W9        30.01R                  
LAS CRUCES     FAIR      88  44  21 W13       30.00R                  
HOLLOMAN AFB   FAIR      84  41  21 CALM      29.96R                  
ALAMOGORDO     FAIR      77  37  24 SE3       29.95S                  
T OR C         FAIR      91  43  18 W9        29.99R                  

$$
NMZ519>523-260500-
CENTRAL VALLEYS/CENTRAL HIGHLANDS
  
CITY           SKY/WX    TMP DP  RH WIND       PRES   REMARKS
ALBUQUERQUE    FAIR      86  31  13 W5        30.03R                  
MORIARTY ARPT  FAIR      73  35  25 W6        30.11S                  
CLINES CORNERS FAIR      68  31  25 W9        30.18S                  
BELEN          FAIR      80  29  15 W10       30.03R                  
SOCORRO        FAIR      89  31  12 W16G22    30.00S                  

$$
NMZ524>526-539-540-260500-
SOUTHCENTRAL MOUNTAINS
  
CITY           SKY/WX    TMP DP  RH WIND       PRES   REMARKS
RUIDOSO        FAIR      73  36  25 W12       30.20R                  

$$
NMZ527>531-260500-
NORTHEAST HIGHLANDS/NORTHEAST PLAINS
  
CITY           SKY/WX    TMP DP  RH WIND       PRES   REMARKS
LAS VEGAS      FAIR      71  32  23 W8        30.13R                  
RATON          FAIR      70  36  28 NE7       30.04R                  
CLAYTON        FAIR      71  59  65 S12       29.93S                  

$$
NMZ532>537-260500-
EASTCENTRAL PLAINS
  
CITY           SKY/WX    TMP DP  RH WIND       PRES   REMARKS
SANTA ROSA     FAIR      86  39  19 SW7       29.92R                  
TUCUMCARI      FAIR      80  49  33 CALM      29.84R                  
CANNON AFB     FAIR      76  53  43 SE3       29.91R                  
CLOVIS AIRPORT FAIR      74  60  61 SE8       29.91R                  

$$
NMZ028-029-538-260500-
SOUTHEAST PLAINS
  
CITY           SKY/WX    TMP DP  RH WIND       PRES   REMARKS
ROSWELL        FAIR      89  35  14 W10       29.85R                  
ARTESIA        FAIR      90  43  19 W9        29.86S                  
CARLSBAD       FAIR      89  40  17 SW12      29.82R                  
HOBBS          FAIR      88  36  15 VRB5      29.87R                  


$$